| time (UTC) | temp C | wind direction | speed KPH | gust KPH | rain 1hr cm | rain 24hr cm | rain mn cm | humidity % | barometer mb |
| 20260505171504 | 19 | 265 | 0.0 | 1.6 | 0.00 | 0.23 | 0.23 | 76 | 1007.2 |
| 20260505170005 | 18 | 265 | 0.0 | 0.0 | 0.00 | 0.23 | 0.23 | 78 | 1007.1 |
| 20260505164504 | 18 | 265 | 0.0 | 0.0 | 0.00 | 0.23 | 0.23 | 75 | 1007.2 |
| 20260505163023 | 19 | 265 | 0.0 | 1.6 | 0.00 | 0.23 | 0.23 | 75 | 1007.2 |
| 20260505161503 | 19 | 265 | 0.0 | 4.8 | 0.00 | 0.23 | 0.23 | 73 | 1007.3 |
| 20260505153004 | 19 | 234 | 0.0 | 4.8 | 0.00 | 0.23 | 0.23 | 78 | 1007.0 |
| 20260505124503 | 14 | 250 | 0.0 | 3.2 | 0.03 | 0.23 | 0.23 | 94 | 1006.5 |
| 20260505123004 | 14 | 294 | 0.0 | 0.0 | 0.03 | 0.23 | 0.23 | 93 | 1006.7 |
| 20260505120005 | 13 | 233 | 0.0 | 3.2 | 0.03 | 0.23 | 0.23 | 93 | 1006.6 |
| 20260505114503 | 13 | 59 | 0.0 | 0.0 | 0.00 | 0.20 | 0.20 | 92 | 1006.4 |
| 20260505113004 | 13 | 59 | 0.0 | 0.0 | 0.03 | 0.20 | 0.20 | 92 | 1006.3 |
| 20260505101503 | 14 | 59 | 0.0 | 4.8 | 0.13 | 0.15 | 0.15 | 89 | 1007.0 |
| 20260505100004 | 15 | 59 | 0.0 | 3.2 | 0.10 | 0.13 | 0.13 | 87 | 1006.7 |
| 20260505094504 | 15 | 69 | 0.0 | 4.8 | 0.08 | 0.10 | 0.10 | 85 | 1006.9 |
| 20260505093004 | 16 | 46 | 0.0 | 0.0 | 0.00 | 0.03 | 0.03 | 83 | 1007.0 |
| 20260505090004 | 15 | 229 | 0.0 | 0.0 | 0.00 | 0.03 | 0.03 | 84 | 1006.4 |
| 20260505084504 | 15 | 229 | 0.0 | 0.0 | 0.03 | 0.03 | 0.03 | 83 | 1005.9 |
| 20260505083003 | 15 | 229 | 0.0 | 0.0 | 0.03 | 0.03 | 0.03 | 83 | 1005.7 |
| 20260505081504 | 16 | 229 | 0.0 | 0.0 | 0.03 | 0.03 | 0.03 | 80 | 1005.6 |
| 20260505080004 | 16 | 229 | 0.0 | 0.0 | 0.03 | 0.03 | 0.03 | 77 | 1005.3 |
| 20260505074504 | 17 | 229 | 0.0 | 0.0 | 0.00 | 0.00 | 0.00 | 77 | 1005.2 |
| 20260505073004 | 17 | 229 | 0.0 | 0.0 | 0.00 | 0.00 | 0.00 | 72 | 1004.9 |
| 20260505071504 | 17 | 229 | 0.0 | 0.0 | 0.00 | 0.00 | 0.00 | 72 | 1005.0 |
| 20260505070005 | 17 | 229 | 0.0 | 0.0 | 0.00 | 0.00 | 0.00 | 71 | 1005.0 |
| 20260505064503 | 17 | 229 | 0.0 | 0.0 | 0.00 | 0.00 | 0.00 | 70 | 1004.8 |
| 20260505061503 | 18 | 229 | 0.0 | 0.0 | 0.00 | 0.00 | 0.00 | 70 | 1004.7 |
| 20260505060004 | 17 | 229 | 0.0 | 0.0 | 0.00 | 0.00 | 0.00 | 70 | 1004.5 |
| 20260505054503 | 17 | 229 | 0.0 | 0.0 | 0.00 | 0.00 | 0.00 | 69 | 1004.2 |
| 20260505053004 | 18 | 228 | 0.0 | 0.0 | 0.00 | 0.00 | 0.00 | 69 | 1004.1 |
| 20260505051504 | 18 | 227 | 0.0 | 0.0 | 0.00 | 0.00 | 0.00 | 68 | 1004.2 |
| 20260505041504 | 17 | 266 | 0.0 | 0.0 | 0.00 | 0.00 | 0.00 | 75 | 1004.7 |
| 20260505040004 | 17 | 266 | 0.0 | 0.0 | 0.00 | 0.00 | 0.00 | 75 | 1004.7 |
| 20260505034504 | 17 | 266 | 0.0 | 0.0 | 0.00 | 0.00 | 0.00 | 75 | 1004.8 |
| 20260505033004 | 17 | 266 | 0.0 | 0.0 | 0.00 | 0.00 | 0.00 | 74 | 1004.9 |
| 20260505031504 | 17 | 266 | 0.0 | 0.0 | 0.00 | 0.00 | 0.00 | 75 | 1004.8 |
| 20260505030004 | 17 | 254 | 0.0 | 0.0 | 0.00 | 0.00 | 0.00 | 73 | 1004.8 |
| 20260505024504 | 17 | 254 | 0.0 | 0.0 | 0.00 | 0.00 | 0.00 | 72 | 1004.7 |
| 20260505021504 | 18 | 254 | 0.0 | 0.0 | 0.00 | 0.00 | 0.00 | 71 | 1004.2 |
| 20260505020004 | 18 | 254 | 0.0 | 0.0 | 0.00 | 0.00 | 0.00 | 70 | 1004.0 |
| 20260505014504 | 18 | 254 | 0.0 | 0.0 | 0.00 | 0.00 | 0.00 | 68 | 1003.9 |
| 20260505013004 | 18 | 254 | 0.0 | 0.0 | 0.00 | 0.00 | 0.00 | 66 | 1003.8 |
| 20260505011504 | 19 | 254 | 0.0 | 0.0 | 0.00 | 0.00 | 0.00 | 65 | 1003.7 |
| 20260505003004 | 21 | 247 | 0.0 | 3.2 | 0.00 | 0.00 | 0.00 | 56 | 1003.6 |
| 20260505001504 | 22 | 236 | 1.6 | 4.8 | 0.00 | 0.00 | 0.00 | 55 | 1003.6 |
| 20260505000004 | 22 | 245 | 0.0 | 8.0 | 0.00 | 0.00 | 0.00 | 53 | 1003.7 |
| 20260504233003 | 21 | 206 | 0.0 | 1.6 | 0.00 | 0.00 | 0.00 | 68 | 1004.0 |
| 20260504231504 | 21 | 230 | 0.0 | 0.0 | 0.00 | 0.00 | 0.00 | 64 | 1004.0 |
| 20260504230003 | 21 | 230 | 0.0 | 0.0 | 0.00 | 0.00 | 0.00 | 62 | 1004.3 |
| 20260504224504 | 22 | 230 | 0.0 | 4.8 | 0.00 | 0.00 | 0.00 | 61 | 1004.6 |
| 20260504223024 | 22 | 253 | 0.0 | 0.0 | 0.00 | 0.00 | 0.00 | 59 | 1004.6 |
| 20260504220004 | 22 | 238 | 0.0 | 4.8 | 0.00 | 0.00 | 0.00 | 59 | 1004.6 |
| 20260504214504 | 22 | 279 | 0.0 | 4.8 | 0.00 | 0.00 | 0.00 | 59 | 1005.1 |
| 20260504213004 | 22 | 247 | 1.6 | 8.0 | 0.00 | 0.00 | 0.00 | 59 | 1005.2 |
| 20260504211504 | 22 | 229 | 1.6 | 4.8 | 0.00 | 0.00 | 0.00 | 60 | 1005.4 |
| 20260504210004 | 21 | 244 | 0.0 | 4.8 | 0.00 | 0.00 | 0.00 | 62 | 1005.6 |
| 20260504204504 | 21 | 236 | 0.0 | 4.8 | 0.00 | 0.00 | 0.00 | 65 | 1005.8 |
| 20260504203004 | 21 | 59 | 0.0 | 3.2 | 0.00 | 0.00 | 0.00 | 70 | 1006.3 |
| 20260504201503 | 19 | 25 | 0.0 | 0.0 | 0.00 | 0.00 | 0.00 | 76 | 1006.4 |
| 20260504200004 | 18 | 26 | 0.0 | 0.0 | 0.00 | 0.00 | 0.00 | 79 | 1006.3 |
| 20260504194504 | 18 | 26 | 0.0 | 1.6 | 0.00 | 0.00 | 0.00 | 79 | 1006.6 |
| 20260504193004 | 18 | 310 | 0.0 | 0.0 | 0.00 | 0.00 | 0.00 | 76 | 1007.1 |
| 20260504191503 | 19 | 207 | 0.0 | 12.9 | 0.00 | 0.00 | 0.00 | 70 | 1006.9 |
| 20260504184504 | 20 | 266 | 0.0 | 11.3 | 0.00 | 0.00 | 0.00 | 65 | 1007.3 |
| 20260504180004 | 21 | 199 | 1.6 | 8.0 | 0.00 | 0.00 | 0.00 | 63 | 1006.4 |
| 20260504174503 | 20 | 245 | 1.6 | 4.8 | 0.00 | 0.00 | 0.00 | 66 | 1006.6 |
| 20260504173004 | 20 | 263 | 0.0 | 4.8 | 0.00 | 0.00 | 0.00 | 64 | 1006.7 |